Location: ????????
(55.6189°N, 38.3031°E)
Time: 18:48:05
(UTC+00:00)

SJ-7 - Pass Details

Date: 15 November 2019
Orbit: 555 x 603 km, 97.7° (Epoch: 10 December)

Event Time Altitude Azimuth Distance (km) Brightness Sun altitude
Rises 03:46:50 0° 13° (NNE) 2,863 7.9 -10.2°
Reaches altitude 10° 03:49:02 10° 12° (NNE) 1,950 7.1 -9.9°
Maximum altitude 03:53:15 77° 288° (WNW) 616 4.4 -9.4°
Drops below altitude 10° 03:57:24 10° 202° (SSW) 1,910 7.1 -8.8°
Sets 03:59:32 0° 201° (SSW) 2,797 7.9 -8.5°
